Weather History for Tin City, AK

Change the Weather History Date:

Friday, December 7, 2012

  Actual Average Record
Temperature  
Mean Temperature 4 °F -  
Max Temperature 8 °F 13 °F 36 °F (2002)
Min Temperature 1 °F 0 °F -9 °F (1998)
Degree Days  
Heating Degree Days 60    
Moisture  
Dew Point 3 °F    
Average Humidity 88    
Maximum Humidity 94    
Minimum Humidity 83    
Precipitation  
Precipitation 0.00 in - - ()
Sea Level Pressure  
Sea Level Pressure 30.28 in    
Wind  
Wind Speed 23 mph (NE)    
Max Wind Speed 30 mph    
Max Gust Speed 31 mph    
Visibility 8 miles    
Events Snow    
Averages and records for this station are not official NWS values.
T = Trace of Precipitation, MM = Missing Value Source: NWS Daily Summary

Daily Weather History Graph

Daily Weather History Graph

Search for Another Location

Airport:

Trip Planner

Search our weather history database for the weather conditions in past years. The results will help you decide how hot, cold, wet, or windy it might be!

Date:

Astronomy

Dec. 07, 2012 Rise Set
Actual Time 12:11 PM AKST 3:55 PM AKST
Civil Twilight 10:44 AM AKST 5:21 PM AKST
Nautical Twilight 9:31 AM AKST 6:34 PM AKST
Astronomical Twilight 8:28 AM AKST 7:37 PM AKST
Moon 3:10 AM AKST (12/7) 2:21 PM AKST (12/7)
Length of Visible Light 6h 37m
Length of Day
3h 43m
Last Quarter, 37% of the Moon is Illuminated
Dec 7
Last Quarter
Dec 12
New
Dec 19
First Quarter
Dec 28
Full
Jan 4
Last Quarter

Hourly Weather History & Observations

Time (AKST) Temp. Windchill Dew Point Humidity Pressure Visibility Wind Dir Wind Speed Gust Speed Precip Events Conditions
12:55 AM 6.6 °F -14.1 °F 4.8 °F 92% 30.34 in 10.0 mi NE 21.9 mph - N/A Snow Light Snow
1:55 AM 6.1 °F -15.7 °F 4.1 °F 92% 30.33 in 10.0 mi NE 24.2 mph - N/A Snow Light Snow
2:55 AM 4.1 °F -11.1 °F 2.5 °F 93% 30.35 in 10.0 mi NE 10.4 mph 20.7 mph N/A Snow Light Snow Showers
3:55 AM 5.9 °F -10.5 °F 4.5 °F 94% 30.33 in 6.0 mi NE 12.7 mph - N/A Snow Light Snow
4:55 AM 8.2 °F -12.8 °F 5.4 °F 88% 30.32 in 10.0 mi NE 24.2 mph - N/A Snow Light Snow Showers
5:55 AM 8.1 °F -13.8 °F 5.5 °F 89% 30.30 in 6.0 mi NNE 26.5 mph - N/A Snow Light Snow
6:55 AM 8.1 °F -14.2 °F 5.5 °F 89% 30.29 in 10.0 mi NNE 27.6 mph - N/A Snow Light Snow
7:55 AM 6.4 °F -15.2 °F 3.2 °F 87% 30.30 in 10.0 mi NNE 24.2 mph - N/A   Mostly Cloudy
8:55 AM 7.2 °F -13.3 °F 4.5 °F 89% 30.31 in 10.0 mi NE 21.9 mph - N/A Snow Light Snow Showers
9:55 AM 7.5 °F -14.1 °F 4.5 °F 87% 30.30 in 10.0 mi NNE 25.3 mph - N/A   Overcast
10:55 AM 5.9 °F -15.0 °F 3.0 °F 88% 30.31 in 10.0 mi NNE 21.9 mph - N/A   Overcast
11:55 AM 4.5 °F -15.9 °F 1.6 °F 88% 30.31 in 10.0 mi NNE 19.6 mph - N/A   Partly Cloudy
12:55 PM 5.5 °F -15.5 °F 3.2 °F 90% 30.31 in 10.0 mi NNE 21.9 mph - N/A   Mostly Cloudy
1:55 PM 6.8 °F -15.1 °F 4.1 °F 89% 30.29 in 10.0 mi NNE 25.3 mph 31.1 mph N/A Snow Light Snow Showers
2:55 PM 6.6 °F -12.6 °F 4.5 °F 91% 30.28 in 10.0 mi NE 18.4 mph - N/A Snow Light Snow Showers
3:55 PM 6.4 °F -16.0 °F 3.4 °F 87% 30.26 in 9.0 mi NE 26.5 mph - N/A   Overcast
4:55 PM 5.5 °F -17.2 °F 2.5 °F 87% 30.26 in 10.0 mi NE 26.5 mph - N/A   Overcast
5:55 PM 5.9 °F -17.8 °F 3.4 °F 89% 30.25 in 5.0 mi NNE 29.9 mph - N/A Snow Light Snow Showers
6:31 PM 6.8 °F -16.2 °F 3.2 °F 85% 30.25 in 2.5 mi NNE 28.8 mph - N/A Snow Light Snow Showers
6:51 PM 6.8 °F -15.1 °F 3.2 °F 85% 30.25 in 5.0 mi NNE 25.3 mph - N/A Snow Light Snow
6:55 PM 6.1 °F -16.1 °F 3.2 °F 88% 30.25 in 5.0 mi NNE 25.3 mph - N/A Snow Light Snow
7:15 PM 6.8 °F -15.9 °F 3.2 °F 85% 30.25 in 2.0 mi NE 27.6 mph - N/A Snow Light Snow
7:50 PM 5.0 °F -18.3 °F 1.4 °F 85% 30.25 in 8.0 mi NNE 27.6 mph - N/A Snow Light Snow
7:55 PM 4.3 °F -19.3 °F 0.9 °F 86% 30.25 in 10.0 mi NNE 27.6 mph - N/A   Mostly Cloudy
8:55 PM 3.7 °F -18.3 °F 0.9 °F 88% 30.26 in 10.0 mi NNE 23.0 mph - N/A   Mostly Cloudy
9:55 PM 2.1 °F -21.8 °F -2.0 °F 83% 30.24 in 10.0 mi NNE 26.5 mph - N/A   Partly Cloudy
10:55 PM 1.2 °F -22.1 °F -2.2 °F 86% 30.23 in 10.0 mi NE 24.2 mph - N/A   Mostly Cloudy
11:55 PM 2.1 °F -16.6 °F -0.9 °F 87% 30.25 in 2.5 mi NE 15.0 mph - N/A Snow Light Snow